This is the latest recevied weather packets stored in our database for station/object DF9PM-13. If no packets are shown the sender has not sent any weather packets the latest 10 day(s).
| Time | Temp. | Humidity | Pressure | Rain* | Wind** | Luminosity | Snow |
|---|---|---|---|---|---|---|---|
| 1777833925 | 19.44° C | 41% | 1013 hPa | - | - | - | - |
| 1777833624 | 20° C | 43% | 1012.9 hPa | - | - | - | - |
| 1777833325 | 20° C | 42% | 1012.8 hPa | - | - | - | - |
| 1777833024 | 20° C | 42% | 1012.8 hPa | - | - | - | - |
| 1777832724 | 20° C | 41% | 1012.9 hPa | - | - | - | - |
| 1777832424 | 20.56° C | 41% | 1012.8 hPa | - | - | - | - |
| 1777832124 | 20.56° C | 41% | 1012.7 hPa | - | - | - | - |
| 1777831824 | 21.11° C | 40% | 1012.6 hPa | - | - | - | - |
| 1777831524 | 21.11° C | 39% | 1012.6 hPa | - | - | - | - |
| 1777831224 | 21.11° C | 39% | 1012.4 hPa | - | - | - | - |
| 1777830924 | 21.11° C | 38% | 1012.4 hPa | - | - | - | - |
| 1777830623 | 21.11° C | 37% | 1012.3 hPa | - | - | - | - |
| 1777830323 | 21.67° C | 37% | 1012.3 hPa | - | - | - | - |
| 1777830023 | 21.67° C | 36% | 1012.3 hPa | - | - | - | - |
| 1777829723 | 21.67° C | 36% | 1012.2 hPa | - | - | - | - |
| 1777829423 | 21.67° C | 37% | 1012.2 hPa | - | - | - | - |
| 1777829123 | 21.67° C | 35% | 1012.2 hPa | - | - | - | - |
| 1777828823 | 21.67° C | 35% | 1012.1 hPa | - | - | - | - |
| 1777828523 | 22.22° C | 35% | 1012.1 hPa | - | - | - | - |
| 1777828223 | 22.22° C | 36% | 1012 hPa | - | - | - | - |
| 1777827923 | 22.22° C | 33% | 1012 hPa | - | - | - | - |
| 1777827623 | 22.78° C | 33% | 1012 hPa | - | - | - | - |
| 1777827323 | 22.22° C | 33% | 1012 hPa | - | - | - | - |
| 1777827023 | 22.22° C | 32% | 1012 hPa | - | - | - | - |
| 1777826723 | 22.22° C | 32% | 1012 hPa | - | - | - | - |
* Rain since midnight (hover to see other rain measurements)
** Current wind speed in m/s (hover to see current wind gust speed)